Al Udeid, Qatar

4:40 PM AST on February 13, 2016 (GMT +0300)
Villas | | Change Station
CLOSE
Current Station
Personal Weather Station
Location: Doha, DOHA
Elevation: 46 ft
Nearby Weather Stations

Elev 46 ft 25.29 °N, 51.45 °E | Updated 7 minutes ago

Clear
Clear
68.7 °F
Feels Like 68.7 °F
N
0.0
Wind Variable Wind from ENE

Today
High -- | Low -- °F
--% Chance of Precip.
Yesterday
High -- | Low -- °F
Precip. -- in
Pressure 30.09 in
Visibility -9999.0 miles
Clouds
Dew Point 49 °F
Humidity 50%
Rainfall 0.00 in
Snow Depth Not available.
6:11 AM 5:26 PM
Waxing Crescent, 30% visible
METAR OTBD 131300Z 32010KT CAVOK 22/06 Q1019 NOSIG
Pressure 30.09 in
Visibility -9999.0 miles
Clouds
Dew Point 49 °F
Humidity 50%
Rainfall 0.00 in
Snow Depth Not available.
6:11 AM 5:26 PM
Waxing Crescent, 30% visible
METAR OTBD 131300Z 32010KT CAVOK 22/06 Q1019 NOSIG

10-Day Weather Forecast

No radar image for this location.
×

Almanac

Astronomy

Feb. 13, 2016 Rise Set
Actual Time
Civil Twilight
Nautical Twilight
Astronomical Twilight
Moon
Length of Visible Light
Length of Day
Tomorrow will be .
, % of the Moon is Illuminated

Today's Extremes

Country Highs Country Lows

Community

WunderPhotos

Upload Photos

1,892,547 photos uploaded!

WunderBlog® & News

Nearby

Air Quality

  Air Quality AQ Index Pollutant
Not available.

Snow Depth

Station Depth Elevation

Earthquake Activity

City Distance Mag. Time & Date
Minimum magnitude displayed is 2.5.

Coastal Water Temperatures

Place Temperature

Stations

Nearby Weather Stations

Station Location Temp. Windchill Dew Point Humidity Wind Precip. Elev Updated Type